Year,Month,Day,Hour,Minute,Value (Times are PST for insolation in W/m^2)
2008,01,26,00,00,0.00
2008,01,26,00,01,0.00
2008,01,26,00,02,0.00
2008,01,26,00,03,0.00
2008,01,26,00,04,0.00
2008,01,26,00,05,0.00
2008,01,26,00,06,0.00
2008,01,26,00,07,0.00
2008,01,26,00,08,0.00
2008,01,26,00,09,0.00
2008,01,26,00,10,0.00
2008,01,26,00,11,0.00
2008,01,26,00,12,0.00
2008,01,26,00,13,0.00
2008,01,26,00,14,0.00
2008,01,26,00,15,0.00
2008,01,26,00,16,0.00
2008,01,26,00,17,0.00
2008,01,26,00,18,0.00
2008,01,26,00,19,0.00
2008,01,26,00,20,0.00
2008,01,26,00,21,0.00
2008,01,26,00,22,0.00
2008,01,26,00,23,0.00
2008,01,26,00,24,0.00
2008,01,26,00,25,0.00
2008,01,26,00,26,0.00
2008,01,26,00,27,0.00
2008,01,26,00,28,0.00
2008,01,26,00,29,0.00
2008,01,26,00,30,0.00
2008,01,26,00,31,0.00
2008,01,26,00,32,0.00
2008,01,26,00,33,0.00
2008,01,26,00,34,0.00
2008,01,26,00,35,0.00
2008,01,26,00,36,0.00
2008,01,26,00,37,0.00
2008,01,26,00,38,0.00
2008,01,26,00,39,0.00
2008,01,26,00,40,0.00
2008,01,26,00,41,0.00
2008,01,26,00,42,0.00
2008,01,26,00,43,0.00
2008,01,26,00,44,0.00
2008,01,26,00,45,0.00
2008,01,26,00,46,0.00
2008,01,26,00,47,0.00
2008,01,26,00,48,0.00
2008,01,26,00,49,0.00
2008,01,26,00,50,0.00
2008,01,26,00,51,0.00
2008,01,26,00,52,0.00
2008,01,26,00,53,0.00
2008,01,26,00,54,0.00
2008,01,26,00,55,0.00
2008,01,26,00,56,0.00
2008,01,26,00,57,0.00
2008,01,26,00,58,0.00
2008,01,26,00,59,0.00
2008,01,26,01,00,0.00
2008,01,26,01,01,0.00
2008,01,26,01,02,0.00
2008,01,26,01,03,0.00
2008,01,26,01,04,0.00
2008,01,26,01,05,0.00
2008,01,26,01,06,0.00
2008,01,26,01,07,0.00
2008,01,26,01,08,0.00
2008,01,26,01,09,0.00
2008,01,26,01,10,0.00
2008,01,26,01,11,0.00
2008,01,26,01,12,0.00
2008,01,26,01,13,0.00
2008,01,26,01,14,0.00
2008,01,26,01,15,0.00
2008,01,26,01,16,0.00
2008,01,26,01,17,0.00
2008,01,26,01,18,0.00
2008,01,26,01,19,0.00
2008,01,26,01,20,0.00
2008,01,26,01,21,0.00
2008,01,26,01,22,0.00
2008,01,26,01,23,0.00
2008,01,26,01,24,0.00
2008,01,26,01,25,0.00
2008,01,26,01,26,0.00
2008,01,26,01,27,0.00
2008,01,26,01,28,0.00
2008,01,26,01,29,0.00
2008,01,26,01,30,0.00
2008,01,26,01,31,0.00
2008,01,26,01,32,0.00
2008,01,26,01,33,0.00
2008,01,26,01,34,0.00
2008,01,26,01,35,0.00
2008,01,26,01,36,0.00
2008,01,26,01,37,0.00
2008,01,26,01,38,0.00
2008,01,26,01,39,0.00
2008,01,26,01,40,0.00
2008,01,26,01,41,0.00
2008,01,26,01,42,0.00
2008,01,26,01,43,0.00
2008,01,26,01,44,0.00
2008,01,26,01,45,0.00
2008,01,26,01,46,0.00
2008,01,26,01,47,0.00
2008,01,26,01,48,0.00
2008,01,26,01,49,0.00
2008,01,26,01,50,0.00
2008,01,26,01,51,0.00
2008,01,26,01,52,0.00
2008,01,26,01,53,0.00
2008,01,26,01,54,0.00
2008,01,26,01,55,0.00
2008,01,26,01,56,0.00
2008,01,26,01,57,0.00
2008,01,26,01,58,0.00
2008,01,26,01,59,0.00
2008,01,26,02,00,0.00
2008,01,26,02,01,0.00
2008,01,26,02,02,0.00
2008,01,26,02,03,0.00
2008,01,26,02,04,0.00
2008,01,26,02,05,0.00
2008,01,26,02,06,0.00
2008,01,26,02,07,0.00
2008,01,26,02,08,0.00
2008,01,26,02,09,0.00
2008,01,26,02,10,0.00
2008,01,26,02,11,0.00
2008,01,26,02,12,0.00
2008,01,26,02,13,0.00
2008,01,26,02,14,0.00
2008,01,26,02,15,0.00
2008,01,26,02,16,0.00
2008,01,26,02,17,0.00
2008,01,26,02,18,0.00
2008,01,26,02,19,0.00
2008,01,26,02,20,0.00
2008,01,26,02,21,0.00
2008,01,26,02,22,0.00
2008,01,26,02,23,0.00
2008,01,26,02,24,0.00
2008,01,26,02,25,0.00
2008,01,26,02,26,0.00
2008,01,26,02,27,0.00
2008,01,26,02,28,0.00
2008,01,26,02,29,0.00
2008,01,26,02,30,0.00
2008,01,26,02,31,0.00
2008,01,26,02,32,0.00
2008,01,26,02,33,0.00
2008,01,26,02,34,0.00
2008,01,26,02,35,0.00
2008,01,26,02,36,0.00
2008,01,26,02,37,0.00
2008,01,26,02,38,0.00
2008,01,26,02,39,0.00
2008,01,26,02,40,0.00
2008,01,26,02,41,0.00
2008,01,26,02,42,0.00
2008,01,26,02,43,0.00
2008,01,26,02,44,0.00
2008,01,26,02,45,0.00
2008,01,26,02,46,0.00
2008,01,26,02,47,0.00
2008,01,26,02,48,0.00
2008,01,26,02,49,0.00
2008,01,26,02,50,0.00
2008,01,26,02,51,0.00
2008,01,26,02,52,0.00
2008,01,26,02,53,0.00
2008,01,26,02,54,0.00
2008,01,26,02,55,0.00
2008,01,26,02,56,0.00
2008,01,26,02,57,0.00
2008,01,26,02,58,0.00
2008,01,26,02,59,0.00
2008,01,26,03,00,0.00
2008,01,26,03,01,0.00
2008,01,26,03,02,0.00
2008,01,26,03,03,0.00
2008,01,26,03,04,0.00
2008,01,26,03,05,0.00
2008,01,26,03,06,0.00
2008,01,26,03,07,0.00
2008,01,26,03,08,0.00
2008,01,26,03,09,0.00
2008,01,26,03,10,0.00
2008,01,26,03,11,0.00
2008,01,26,03,12,0.00
2008,01,26,03,13,0.00
2008,01,26,03,14,0.00
2008,01,26,03,15,0.00
2008,01,26,03,16,0.00
2008,01,26,03,17,0.00
2008,01,26,03,18,0.00
2008,01,26,03,19,0.00
2008,01,26,03,20,0.00
2008,01,26,03,21,0.00
2008,01,26,03,22,0.00
2008,01,26,03,23,0.00
2008,01,26,03,24,0.00
2008,01,26,03,25,0.00
2008,01,26,03,26,0.00
2008,01,26,03,27,0.00
2008,01,26,03,28,0.00
2008,01,26,03,29,0.00
2008,01,26,03,30,0.00
2008,01,26,03,31,0.00
2008,01,26,03,32,0.00
2008,01,26,03,33,0.00
2008,01,26,03,34,0.00
2008,01,26,03,35,0.00
2008,01,26,03,36,0.00
2008,01,26,03,37,0.00
2008,01,26,03,38,0.00
2008,01,26,03,39,0.00
2008,01,26,03,40,0.00
2008,01,26,03,41,0.00
2008,01,26,03,42,0.00
2008,01,26,03,43,0.00
2008,01,26,03,44,0.00
2008,01,26,03,45,0.00
2008,01,26,03,46,0.00
2008,01,26,03,47,0.00
2008,01,26,03,48,0.00
2008,01,26,03,49,0.00
2008,01,26,03,50,0.00
2008,01,26,03,51,0.00
2008,01,26,03,52,0.00
2008,01,26,03,53,0.00
2008,01,26,03,54,0.00
2008,01,26,03,55,0.00
2008,01,26,03,56,0.00
2008,01,26,03,57,0.00
2008,01,26,03,58,0.00
2008,01,26,03,59,0.00
2008,01,26,04,00,0.00
2008,01,26,04,01,0.00
2008,01,26,04,02,0.00
2008,01,26,04,03,0.00
2008,01,26,04,04,0.00
2008,01,26,04,05,0.00
2008,01,26,04,06,0.00
2008,01,26,04,07,0.00
2008,01,26,04,08,0.00
2008,01,26,04,09,0.00
2008,01,26,04,10,0.00
2008,01,26,04,11,0.00
2008,01,26,04,12,0.00
2008,01,26,04,13,0.00
2008,01,26,04,14,0.00
2008,01,26,04,15,0.00
2008,01,26,04,16,0.00
2008,01,26,04,17,0.00
2008,01,26,04,18,0.00
2008,01,26,04,19,0.00
2008,01,26,04,20,0.00
2008,01,26,04,21,0.00
2008,01,26,04,22,0.00
2008,01,26,04,23,0.00
2008,01,26,04,24,0.00
2008,01,26,04,25,0.00
2008,01,26,04,26,0.00
2008,01,26,04,27,0.00
2008,01,26,04,28,0.00
2008,01,26,04,29,0.00
2008,01,26,04,30,0.00
2008,01,26,04,31,0.00
2008,01,26,04,32,0.00
2008,01,26,04,33,0.00
2008,01,26,04,34,0.00
2008,01,26,04,35,0.00
2008,01,26,04,36,0.00
2008,01,26,04,37,0.00
2008,01,26,04,38,0.00
2008,01,26,04,39,0.00
2008,01,26,04,40,0.00
2008,01,26,04,41,0.00
2008,01,26,04,42,0.00
2008,01,26,04,43,0.00
2008,01,26,04,44,0.00
2008,01,26,04,45,0.00
2008,01,26,04,46,0.00
2008,01,26,04,47,0.00
2008,01,26,04,48,0.00
2008,01,26,04,49,0.00
2008,01,26,04,50,0.00
2008,01,26,04,51,0.00
2008,01,26,04,52,0.00
2008,01,26,04,53,0.00
2008,01,26,04,54,0.00
2008,01,26,04,55,0.00
2008,01,26,04,56,0.00
2008,01,26,04,57,0.00
2008,01,26,04,58,0.00
2008,01,26,04,59,0.00
2008,01,26,05,00,0.00
2008,01,26,05,01,0.00
2008,01,26,05,02,0.00
2008,01,26,05,03,0.00
2008,01,26,05,04,0.00
2008,01,26,05,05,0.00
2008,01,26,05,06,0.00
2008,01,26,05,07,0.00
2008,01,26,05,08,0.00
2008,01,26,05,09,0.00
2008,01,26,05,10,0.00
2008,01,26,05,11,0.00
2008,01,26,05,12,0.00
2008,01,26,05,13,0.00
2008,01,26,05,14,0.00
2008,01,26,05,15,0.00
2008,01,26,05,16,0.00
2008,01,26,05,17,0.00
2008,01,26,05,18,0.00
2008,01,26,05,19,0.00
2008,01,26,05,20,0.00
2008,01,26,05,21,0.00
2008,01,26,05,22,0.00
2008,01,26,05,23,0.00
2008,01,26,05,24,0.00
2008,01,26,05,25,0.00
2008,01,26,05,26,0.00
2008,01,26,05,27,0.00
2008,01,26,05,28,0.00
2008,01,26,05,29,0.00
2008,01,26,05,30,0.00
2008,01,26,05,31,0.00
2008,01,26,05,32,0.00
2008,01,26,05,33,0.00
2008,01,26,05,34,0.00
2008,01,26,05,35,0.00
2008,01,26,05,36,0.00
2008,01,26,05,37,0.00
2008,01,26,05,38,0.00
2008,01,26,05,39,0.00
2008,01,26,05,40,0.00
2008,01,26,05,41,0.00
2008,01,26,05,42,0.00
2008,01,26,05,43,0.00
2008,01,26,05,44,0.00
2008,01,26,05,45,0.00
2008,01,26,05,46,0.00
2008,01,26,05,47,0.00
2008,01,26,05,48,0.00
2008,01,26,05,49,0.00
2008,01,26,05,50,0.00
2008,01,26,05,51,0.00
2008,01,26,05,52,0.00
2008,01,26,05,53,0.00
2008,01,26,05,54,0.00
2008,01,26,05,55,0.00
2008,01,26,05,56,0.00
2008,01,26,05,57,0.00
2008,01,26,05,58,0.00
2008,01,26,05,59,0.00
2008,01,26,06,00,0.00
2008,01,26,06,01,0.00
2008,01,26,06,02,0.00
2008,01,26,06,03,0.00
2008,01,26,06,04,0.00
2008,01,26,06,05,0.00
2008,01,26,06,06,0.00
2008,01,26,06,07,0.00
2008,01,26,06,08,0.00
2008,01,26,06,09,0.00
2008,01,26,06,10,0.00
2008,01,26,06,11,0.00
2008,01,26,06,12,0.00
2008,01,26,06,13,0.00
2008,01,26,06,14,0.00
2008,01,26,06,15,0.00
2008,01,26,06,16,0.00
2008,01,26,06,17,0.00
2008,01,26,06,18,0.00
2008,01,26,06,19,0.00
2008,01,26,06,20,0.00
2008,01,26,06,21,0.00
2008,01,26,06,22,0.00
2008,01,26,06,23,0.00
2008,01,26,06,24,0.00
2008,01,26,06,25,0.00
2008,01,26,06,26,0.00
2008,01,26,06,27,0.00
2008,01,26,06,28,0.00
2008,01,26,06,29,0.00
2008,01,26,06,30,0.00
2008,01,26,06,31,0.00
2008,01,26,06,32,0.00
2008,01,26,06,33,0.00
2008,01,26,06,34,0.00
2008,01,26,06,35,0.00
2008,01,26,06,36,0.00
2008,01,26,06,37,0.00
2008,01,26,06,38,0.00
2008,01,26,06,39,0.00
2008,01,26,06,40,0.00
2008,01,26,06,41,0.00
2008,01,26,06,42,0.00
2008,01,26,06,43,0.00
2008,01,26,06,44,0.00
2008,01,26,06,45,0.00
2008,01,26,06,46,0.00
2008,01,26,06,47,0.00
2008,01,26,06,48,0.00
2008,01,26,06,49,0.00
2008,01,26,06,50,0.00
2008,01,26,06,51,0.00
2008,01,26,06,52,0.00
2008,01,26,06,53,0.00
2008,01,26,06,54,0.00
2008,01,26,06,55,0.00
2008,01,26,06,56,0.00
2008,01,26,06,57,0.00
2008,01,26,06,58,0.00
2008,01,26,06,59,0.00
2008,01,26,07,00,0.00
2008,01,26,07,01,0.00
2008,01,26,07,02,0.00
2008,01,26,07,03,0.00
2008,01,26,07,04,0.00
2008,01,26,07,05,0.00
2008,01,26,07,06,0.00
2008,01,26,07,07,0.00
2008,01,26,07,08,0.00
2008,01,26,07,09,0.00
2008,01,26,07,10,0.00
2008,01,26,07,11,0.00
2008,01,26,07,12,0.00
2008,01,26,07,13,0.00
2008,01,26,07,14,0.00
2008,01,26,07,15,0.00
2008,01,26,07,16,0.00
2008,01,26,07,17,0.00
2008,01,26,07,18,0.00
2008,01,26,07,19,0.00
2008,01,26,07,20,0.00
2008,01,26,07,21,0.00
2008,01,26,07,22,0.00
2008,01,26,07,23,0.00
2008,01,26,07,24,0.00
2008,01,26,07,25,0.00
2008,01,26,07,26,0.00
2008,01,26,07,27,0.00
2008,01,26,07,28,0.00
2008,01,26,07,29,0.00
2008,01,26,07,30,0.00
2008,01,26,07,31,0.00
2008,01,26,07,32,0.00
2008,01,26,07,33,0.00
2008,01,26,07,34,0.00
2008,01,26,07,35,0.00
2008,01,26,07,36,0.00
2008,01,26,07,37,0.00
2008,01,26,07,38,0.00
2008,01,26,07,39,0.00
2008,01,26,07,40,0.00
2008,01,26,07,41,0.00
2008,01,26,07,42,0.00
2008,01,26,07,43,0.00
2008,01,26,07,44,0.00
2008,01,26,07,45,0.00
2008,01,26,07,46,0.00
2008,01,26,07,47,0.00
2008,01,26,07,48,0.00
2008,01,26,07,49,0.00
2008,01,26,07,50,0.00
2008,01,26,07,51,0.00
2008,01,26,07,52,1.20
2008,01,26,07,53,5.00
2008,01,26,07,54,5.00
2008,01,26,07,55,5.00
2008,01,26,07,56,5.00
2008,01,26,07,57,5.20
2008,01,26,07,58,7.00
2008,01,26,07,59,7.00
2008,01,26,08,00,7.00
2008,01,26,08,01,8.40
2008,01,26,08,02,9.00
2008,01,26,08,03,9.40
2008,01,26,08,04,11.00
2008,01,26,08,05,11.50
2008,01,26,08,06,12.00
2008,01,26,08,07,12.00
2008,01,26,08,08,14.00
2008,01,26,08,09,14.00
2008,01,26,08,10,14.00
2008,01,26,08,11,14.00
2008,01,26,08,12,14.00
2008,01,26,08,13,14.00
2008,01,26,08,14,16.00
2008,01,26,08,15,16.00
2008,01,26,08,16,16.80
2008,01,26,08,17,18.00
2008,01,26,08,18,18.80
2008,01,26,08,19,19.00
2008,01,26,08,20,19.00
2008,01,26,08,21,19.00
2008,01,26,08,22,20.60
2008,01,26,08,23,23.00
2008,01,26,08,24,24.50
2008,01,26,08,25,25.00
2008,01,26,08,26,26.00
2008,01,26,08,27,26.60
2008,01,26,08,28,28.00
2008,01,26,08,29,28.00
2008,01,26,08,30,29.50
2008,01,26,08,31,30.00
2008,01,26,08,32,30.30
2008,01,26,08,33,32.00
2008,01,26,08,34,32.00
2008,01,26,08,35,32.00
2008,01,26,08,36,32.00
2008,01,26,08,37,32.00
2008,01,26,08,38,32.00
2008,01,26,08,39,32.00
2008,01,26,08,40,32.00
2008,01,26,08,41,32.00
2008,01,26,08,42,32.00
2008,01,26,08,43,32.00
2008,01,26,08,44,33.00
2008,01,26,08,45,33.00
2008,01,26,08,46,33.00
2008,01,26,08,47,34.40
2008,01,26,08,48,35.00
2008,01,26,08,49,37.00
2008,01,26,08,50,37.50
2008,01,26,08,51,39.00
2008,01,26,08,52,39.00
2008,01,26,08,53,39.70
2008,01,26,08,54,40.00
2008,01,26,08,55,40.00
2008,01,26,08,56,40.50
2008,01,26,08,57,42.00
2008,01,26,08,58,42.00
2008,01,26,08,59,42.00
2008,01,26,09,00,42.00
2008,01,26,09,01,42.20
2008,01,26,09,02,44.00
2008,01,26,09,03,44.00
2008,01,26,09,04,44.00
2008,01,26,09,05,46.30
2008,01,26,09,06,48.80
2008,01,26,09,07,49.50
2008,01,26,09,08,53.30
2008,01,26,09,09,54.90
2008,01,26,09,10,57.20
2008,01,26,09,11,61.10
2008,01,26,09,12,63.00
2008,01,26,09,13,63.30
2008,01,26,09,14,67.50
2008,01,26,09,15,69.50
2008,01,26,09,16,71.30
2008,01,26,09,17,72.00
2008,01,26,09,18,75.80
2008,01,26,09,19,77.00
2008,01,26,09,20,77.60
2008,01,26,09,21,79.90
2008,01,26,09,22,82.30
2008,01,26,09,23,83.00
2008,01,26,09,24,84.00
2008,01,26,09,25,84.30
2008,01,26,09,26,86.00
2008,01,26,09,27,87.10
2008,01,26,09,28,89.40
2008,01,26,09,29,90.00
2008,01,26,09,30,91.00
2008,01,26,09,31,91.40
2008,01,26,09,32,93.00
2008,01,26,09,33,94.10
2008,01,26,09,34,95.00
2008,01,26,09,35,96.50
2008,01,26,09,36,97.00
2008,01,26,09,37,97.20
2008,01,26,09,38,98.00
2008,01,26,09,39,99.10
2008,01,26,09,40,100.00
2008,01,26,09,41,101.80
2008,01,26,09,42,102.00
2008,01,26,09,43,102.50
2008,01,26,09,44,104.00
2008,01,26,09,45,104.00
2008,01,26,09,46,104.80
2008,01,26,09,47,105.00
2008,01,26,09,48,105.00
2008,01,26,09,49,105.00
2008,01,26,09,50,105.00
2008,01,26,09,51,105.00
2008,01,26,09,52,104.20
2008,01,26,09,53,104.00
2008,01,26,09,54,101.80
2008,01,26,09,55,99.40
2008,01,26,09,56,97.50
2008,01,26,09,57,95.70
2008,01,26,09,58,91.90
2008,01,26,09,59,91.00
2008,01,26,10,00,90.60
2008,01,26,10,01,88.00
2008,01,26,10,02,88.00
2008,01,26,10,03,88.00
2008,01,26,10,04,86.60
2008,01,26,10,05,86.00
2008,01,26,10,06,85.60
2008,01,26,10,07,84.00
2008,01,26,10,08,83.50
2008,01,26,10,09,83.00
2008,01,26,10,10,83.00
2008,01,26,10,11,82.90
2008,01,26,10,12,81.00
2008,01,26,10,13,81.00
2008,01,26,10,14,81.00
2008,01,26,10,15,81.00
2008,01,26,10,16,81.00
2008,01,26,10,17,83.10
2008,01,26,10,18,84.00
2008,01,26,10,19,84.80
2008,01,26,10,20,87.10
2008,01,26,10,21,89.40
2008,01,26,10,22,90.00
2008,01,26,10,23,91.00
2008,01,26,10,24,91.50
2008,01,26,10,25,93.00
2008,01,26,10,26,93.00
2008,01,26,10,27,93.00
2008,01,26,10,28,93.00
2008,01,26,10,29,93.00
2008,01,26,10,30,93.00
2008,01,26,10,31,93.00
2008,01,26,10,32,95.40
2008,01,26,10,33,97.80
2008,01,26,10,34,99.90
2008,01,26,10,35,102.20
2008,01,26,10,36,104.90
2008,01,26,10,37,107.90
2008,01,26,10,38,110.30
2008,01,26,10,39,112.40
2008,01,26,10,40,114.00
2008,01,26,10,41,114.00
2008,01,26,10,42,114.60
2008,01,26,10,43,116.90
2008,01,26,10,44,119.10
2008,01,26,10,45,122.50
2008,01,26,10,46,124.70
2008,01,26,10,47,127.00
2008,01,26,10,48,126.40
2008,01,26,10,49,124.10
2008,01,26,10,50,121.60
2008,01,26,10,51,118.50
2008,01,26,10,52,113.80
2008,01,26,10,53,110.10
2008,01,26,10,54,106.30
2008,01,26,10,55,105.00
2008,01,26,10,56,105.00
2008,01,26,10,57,106.80
2008,01,26,10,58,109.00
2008,01,26,10,59,109.00
2008,01,26,11,00,108.30
2008,01,26,11,01,104.40
2008,01,26,11,02,102.00
2008,01,26,11,03,95.80
2008,01,26,11,04,92.70
2008,01,26,11,05,89.50
2008,01,26,11,06,86.60
2008,01,26,11,07,82.20
2008,01,26,11,08,77.90
2008,01,26,11,09,74.20
2008,01,26,11,10,72.00
2008,01,26,11,11,72.60
2008,01,26,11,12,74.80
2008,01,26,11,13,77.80
2008,01,26,11,14,82.20
2008,01,26,11,15,89.60
2008,01,26,11,16,96.90
2008,01,26,11,17,101.20
2008,01,26,11,18,104.40
2008,01,26,11,19,105.00
2008,01,26,11,20,105.00
2008,01,26,11,21,106.90
2008,01,26,11,22,113.60
2008,01,26,11,23,119.50
2008,01,26,11,24,123.90
2008,01,26,11,25,125.00
2008,01,26,11,26,123.40
2008,01,26,11,27,123.00
2008,01,26,11,28,114.80
2008,01,26,11,29,106.70
2008,01,26,11,30,99.40
2008,01,26,11,31,94.40
2008,01,26,11,32,91.20
2008,01,26,11,33,89.90
2008,01,26,11,34,87.60
2008,01,26,11,35,85.30
2008,01,26,11,36,84.00
2008,01,26,11,37,83.30
2008,01,26,11,38,80.00
2008,01,26,11,39,76.00
2008,01,26,11,40,74.40
2008,01,26,11,41,69.00
2008,01,26,11,42,69.00
2008,01,26,11,43,69.00
2008,01,26,11,44,69.00
2008,01,26,11,45,69.00
2008,01,26,11,46,69.00
2008,01,26,11,47,69.00
2008,01,26,11,48,69.60
2008,01,26,11,49,70.00
2008,01,26,11,50,70.00
2008,01,26,11,51,69.10
2008,01,26,11,52,68.60
2008,01,26,11,53,67.00
2008,01,26,11,54,68.20
2008,01,26,11,55,71.30
2008,01,26,11,56,73.90
2008,01,26,11,57,76.00
2008,01,26,11,58,76.00
2008,01,26,11,59,75.20
2008,01,26,12,00,71.40
2008,01,26,12,01,70.00
2008,01,26,12,02,65.00
2008,01,26,12,03,65.00
2008,01,26,12,04,66.40
2008,01,26,12,05,69.50
2008,01,26,12,06,72.60
2008,01,26,12,07,76.50
2008,01,26,12,08,79.00
2008,01,26,12,09,81.00
2008,01,26,12,10,80.30
2008,01,26,12,11,77.70
2008,01,26,12,12,73.20
2008,01,26,12,13,70.40
2008,01,26,12,14,70.10
2008,01,26,12,15,71.60
2008,01,26,12,16,69.60
2008,01,26,12,17,67.90
2008,01,26,12,18,65.60
2008,01,26,12,19,65.00
2008,01,26,12,20,67.20
2008,01,26,12,21,71.40
2008,01,26,12,22,77.10
2008,01,26,12,23,81.20
2008,01,26,12,24,83.70
2008,01,26,12,25,87.50
2008,01,26,12,26,90.00
2008,01,26,12,27,89.40
2008,01,26,12,28,88.00
2008,01,26,12,29,86.80
2008,01,26,12,30,86.00
2008,01,26,12,31,86.00
2008,01,26,12,32,86.00
2008,01,26,12,33,86.00
2008,01,26,12,34,86.80
2008,01,26,12,35,88.00
2008,01,26,12,36,88.00
2008,01,26,12,37,88.00
2008,01,26,12,38,88.40
2008,01,26,12,39,91.00
2008,01,26,12,40,90.50
2008,01,26,12,41,90.00
2008,01,26,12,42,90.00
2008,01,26,12,43,79.60
2008,01,26,12,44,75.80
2008,01,26,12,45,73.40
2008,01,26,12,46,72.00
2008,01,26,12,47,70.70
2008,01,26,12,48,67.50
2008,01,26,12,49,67.00
2008,01,26,12,50,65.00
2008,01,26,12,51,65.00
2008,01,26,12,52,64.00
2008,01,26,12,53,63.00
2008,01,26,12,54,60.50
2008,01,26,12,55,58.00
2008,01,26,12,56,58.00
2008,01,26,12,57,57.30
2008,01,26,12,58,54.70
2008,01,26,12,59,51.60
2008,01,26,13,00,49.20
2008,01,26,13,01,47.10
2008,01,26,13,02,49.40
2008,01,26,13,03,50.30
2008,01,26,13,04,47.40
2008,01,26,13,05,43.20
2008,01,26,13,06,42.00
2008,01,26,13,07,40.00
2008,01,26,13,08,40.00
2008,01,26,13,09,40.00
2008,01,26,13,10,41.20
2008,01,26,13,11,42.00
2008,01,26,13,12,42.00
2008,01,26,13,13,44.00
2008,01,26,13,14,46.00
2008,01,26,13,15,46.00
2008,01,26,13,16,46.60
2008,01,26,13,17,47.00
2008,01,26,13,18,46.10
2008,01,26,13,19,46.10
2008,01,26,13,20,48.20
2008,01,26,13,21,51.00
2008,01,26,13,22,51.00
2008,01,26,13,23,49.50
2008,01,26,13,24,47.10
2008,01,26,13,25,43.50
2008,01,26,13,26,40.00
2008,01,26,13,27,41.00
2008,01,26,13,28,42.00
2008,01,26,13,29,43.60
2008,01,26,13,30,44.00
2008,01,26,13,31,44.50
2008,01,26,13,32,47.70
2008,01,26,13,33,47.90
2008,01,26,13,34,46.40
2008,01,26,13,35,44.50
2008,01,26,13,36,44.10
2008,01,26,13,37,46.00
2008,01,26,13,38,47.80
2008,01,26,13,39,52.70
2008,01,26,13,40,54.00
2008,01,26,13,41,54.00
2008,01,26,13,42,48.90
2008,01,26,13,43,46.50
2008,01,26,13,44,43.30
2008,01,26,13,45,42.00
2008,01,26,13,46,45.60
2008,01,26,13,47,48.80
2008,01,26,13,48,50.90
2008,01,26,13,49,52.60
2008,01,26,13,50,50.20
2008,01,26,13,51,49.00
2008,01,26,13,52,49.00
2008,01,26,13,53,49.00
2008,01,26,13,54,49.20
2008,01,26,13,55,51.00
2008,01,26,13,56,51.00
2008,01,26,13,57,51.00
2008,01,26,13,58,51.00
2008,01,26,13,59,51.00
2008,01,26,14,00,51.20
2008,01,26,14,01,54.90
2008,01,26,14,02,63.30
2008,01,26,14,03,71.10
2008,01,26,14,04,76.10
2008,01,26,14,05,77.00
2008,01,26,14,06,75.70
2008,01,26,14,07,73.40
2008,01,26,14,08,72.00
2008,01,26,14,09,72.00
2008,01,26,14,10,69.50
2008,01,26,14,11,67.00
2008,01,26,14,12,61.60
2008,01,26,14,13,60.00
2008,01,26,14,14,60.00
2008,01,26,14,15,61.90
2008,01,26,14,16,63.00
2008,01,26,14,17,67.10
2008,01,26,14,18,69.50
2008,01,26,14,19,73.40
2008,01,26,14,20,76.40
2008,01,26,14,21,78.40
2008,01,26,14,22,79.00
2008,01,26,14,23,76.70
2008,01,26,14,24,71.60
2008,01,26,14,25,68.90
2008,01,26,14,26,65.80
2008,01,26,14,27,63.60
2008,01,26,14,28,62.10
2008,01,26,14,29,59.90
2008,01,26,14,30,58.00
2008,01,26,14,31,57.20
2008,01,26,14,32,56.00
2008,01,26,14,33,54.50
2008,01,26,14,34,53.10
2008,01,26,14,35,52.30
2008,01,26,14,36,46.70
2008,01,26,14,37,46.00
2008,01,26,14,38,46.00
2008,01,26,14,39,46.00
2008,01,26,14,40,46.90
2008,01,26,14,41,46.90
2008,01,26,14,42,46.00
2008,01,26,14,43,45.10
2008,01,26,14,44,44.00
2008,01,26,14,45,44.00
2008,01,26,14,46,44.00
2008,01,26,14,47,46.50
2008,01,26,14,48,49.60
2008,01,26,14,49,51.90
2008,01,26,14,50,54.90
2008,01,26,14,51,57.60
2008,01,26,14,52,58.00
2008,01,26,14,53,48.10
2008,01,26,14,54,44.00
2008,01,26,14,55,44.90
2008,01,26,14,56,50.20
2008,01,26,14,57,57.40
2008,01,26,14,58,63.00
2008,01,26,14,59,67.60
2008,01,26,15,00,70.70
2008,01,26,15,01,70.30
2008,01,26,15,02,64.80
2008,01,26,15,03,60.30
2008,01,26,15,04,60.00
2008,01,26,15,05,60.00
2008,01,26,15,06,58.60
2008,01,26,15,07,54.90
2008,01,26,15,08,49.50
2008,01,26,15,09,38.20
2008,01,26,15,10,29.80
2008,01,26,15,11,28.00
2008,01,26,15,12,28.90
2008,01,26,15,13,31.20
2008,01,26,15,14,32.00
2008,01,26,15,15,32.90
2008,01,26,15,16,35.20
2008,01,26,15,17,39.90
2008,01,26,15,18,42.80
2008,01,26,15,19,44.00
2008,01,26,15,20,44.00
2008,01,26,15,21,42.10
2008,01,26,15,22,39.90
2008,01,26,15,23,37.50
2008,01,26,15,24,31.60
2008,01,26,15,25,27.40
2008,01,26,15,26,23.70
2008,01,26,15,27,21.10
2008,01,26,15,28,19.00
2008,01,26,15,29,19.00
2008,01,26,15,30,18.50
2008,01,26,15,31,16.70
2008,01,26,15,32,16.00
2008,01,26,15,33,14.00
2008,01,26,15,34,12.00
2008,01,26,15,35,12.00
2008,01,26,15,36,12.90
2008,01,26,15,37,15.40
2008,01,26,15,38,17.60
2008,01,26,15,39,18.00
2008,01,26,15,40,18.00
2008,01,26,15,41,18.40
2008,01,26,15,42,20.10
2008,01,26,15,43,22.40
2008,01,26,15,44,23.00
2008,01,26,15,45,22.90
2008,01,26,15,46,20.50
2008,01,26,15,47,18.60
2008,01,26,15,48,18.00
2008,01,26,15,49,18.00
2008,01,26,15,50,18.00
2008,01,26,15,51,15.90
2008,01,26,15,52,14.00
2008,01,26,15,53,14.70
2008,01,26,15,54,16.00
2008,01,26,15,55,17.50
2008,01,26,15,56,18.00
2008,01,26,15,57,18.00
2008,01,26,15,58,18.00
2008,01,26,15,59,17.20
2008,01,26,16,00,14.80
2008,01,26,16,01,12.50
2008,01,26,16,02,11.10
2008,01,26,16,03,11.00
2008,01,26,16,04,11.00
2008,01,26,16,05,11.00
2008,01,26,16,06,11.00
2008,01,26,16,07,11.00
2008,01,26,16,08,9.10
2008,01,26,16,09,9.20
2008,01,26,16,10,11.00
2008,01,26,16,11,11.50
2008,01,26,16,12,12.00
2008,01,26,16,13,12.00
2008,01,26,16,14,12.00
2008,01,26,16,15,12.00
2008,01,26,16,16,11.70
2008,01,26,16,17,11.00
2008,01,26,16,18,11.60
2008,01,26,16,19,12.00
2008,01,26,16,20,12.00
2008,01,26,16,21,14.00
2008,01,26,16,22,14.00
2008,01,26,16,23,14.00
2008,01,26,16,24,15.40
2008,01,26,16,25,16.00
2008,01,26,16,26,18.00
2008,01,26,16,27,18.00
2008,01,26,16,28,17.30
2008,01,26,16,29,14.90
2008,01,26,16,30,14.00
2008,01,26,16,31,12.50
2008,01,26,16,32,12.00
2008,01,26,16,33,12.00
2008,01,26,16,34,12.00
2008,01,26,16,35,12.00
2008,01,26,16,36,12.00
2008,01,26,16,37,11.10
2008,01,26,16,38,10.80
2008,01,26,16,39,9.00
2008,01,26,16,40,9.00
2008,01,26,16,41,9.00
2008,01,26,16,42,7.50
2008,01,26,16,43,7.00
2008,01,26,16,44,7.00
2008,01,26,16,45,7.00
2008,01,26,16,46,7.00
2008,01,26,16,47,7.00
2008,01,26,16,48,7.00
2008,01,26,16,49,7.00
2008,01,26,16,50,7.00
2008,01,26,16,51,7.00
2008,01,26,16,52,7.00
2008,01,26,16,53,7.00
2008,01,26,16,54,5.40
2008,01,26,16,55,5.00
2008,01,26,16,56,5.00
2008,01,26,16,57,5.00
2008,01,26,16,58,2.60
2008,01,26,16,59,0.00
2008,01,26,17,00,0.00
2008,01,26,17,01,0.00
2008,01,26,17,02,0.00
2008,01,26,17,03,0.00
2008,01,26,17,04,0.00
2008,01,26,17,05,0.00
2008,01,26,17,06,0.00
2008,01,26,17,07,0.00
2008,01,26,17,08,0.00
2008,01,26,17,09,0.00
2008,01,26,17,10,0.00
2008,01,26,17,11,0.00
2008,01,26,17,12,0.00
2008,01,26,17,13,0.00
2008,01,26,17,14,0.00
2008,01,26,17,15,0.00
2008,01,26,17,16,0.00
2008,01,26,17,17,0.00
2008,01,26,17,18,0.00
2008,01,26,17,19,0.00
2008,01,26,17,20,0.00
2008,01,26,17,21,0.00
2008,01,26,17,22,0.00
2008,01,26,17,23,0.00
2008,01,26,17,24,0.00
2008,01,26,17,25,0.00
2008,01,26,17,26,0.00
2008,01,26,17,27,0.00
2008,01,26,17,28,0.00
2008,01,26,17,29,0.00
2008,01,26,17,30,0.00
2008,01,26,17,31,0.00
2008,01,26,17,32,0.00
2008,01,26,17,33,0.00
2008,01,26,17,34,0.00
2008,01,26,17,35,0.00
2008,01,26,17,36,0.00
2008,01,26,17,37,0.00
2008,01,26,17,38,0.00
2008,01,26,17,39,0.00
2008,01,26,17,40,0.00